sat.trackr.live / text

‹ back to catalog

NETSAT-1

NORAD 46506 · 2020-068W

PAYLOAD ACTIVE UNKNOWN

§ Identity

Operator
Country
GER
Launch date
2020-09-28
Launch site
PLMSC
Launch vehicle
Mass (kg)
RCS (m²)

Purposes: tech_demo

External: N2YO · Heavens-Above · Gunter

§ Orbital elements

Epoch: 2026-09-09T00:05:35.937024Z

Period
93.73 min
Inclination
97.8781°
Eccentricity
0.0006474
Mean motion
15.36367734 rev/d
Perigee alt
452.4 km
Apogee alt
461.3 km
Semi-major
6,835.0 km
B*
3.1777e-4
RAAN
258.5655°
Arg perigee
78.7932°
Mean anomaly
281.4038°
Rev number
32,816

§ Raw data

NETSAT-11 46506U 20068W   26252.00388816  .00011192  00000+0  31777-3 0  99992 46506  97.8781 258.5655 0006474  78.7932 281.4038 15.36367734328167

JSON: /api/v1/satellites/46506 · /tle

For live sub-satellite position, see the globe view (requires WebGL).

§ Visibility from observer

Set your observer location to see the next 7 days of passes ≥ 10°. The values pass through the URL so the page stays shareable.

No JS? Fill the form by hand. The geolocation button needs JavaScript.

§ Radio — SatNOGS DB

ModeDescriptionDownlinkUplink
FSK AX.25 G3RUH Telemetry 435.600 MHz

1 transmitter · refreshed weekly from db.satnogs.org